User: anonymous   Login
Location: Ciula Mare
(45.6000°N, 22.8167°E)
Time: 20:39:47
(UTC+00:00)
Language:

deb Delta 139 - Orbit

View from above orbital plane
View from above orbital plane
View from above satellite
View from above satellite

Ground track
Ground track

The orbit data is extracted from the following two-line orbital elements,

1 12226U 78026BT  24051.62659869  .00017149  00000-0  51323-2 0  9997
2 12226  98.8460 112.6298 0112360 204.6175 154.9624 14.39297111168089
Epoch (UTC): 20 February 2024 15:02:18
Eccentricity: 0.0112360
inclination: 98.8460°
perigee height: 680 km
apogee height: 841 km
right ascension of ascending node: 112.6298°
argument of perigee: 204.6175°
revolutions per day: 14.39297111
mean anomaly at epoch: 154.9624°
orbit number at epoch: 16808

The dashed part of the orbit path shows where the satellite is in the earth's shadow,  

DLR